TimeCDT,TemperatureF,Dew PointF,Humidity,Sea Level PressureIn,VisibilityMPH,Wind Direction,Wind SpeedMPH,Gust SpeedMPH,PrecipitationIn,Events,Conditions,WindDirDegrees,DateUTC
12:15 AM,67.3,52.0,58,29.71,10.0,SE,16.1,26.5,N/A,,Mostly Cloudy,130,2013-09-24 05:15:00
12:35 AM,66.9,52.2,59,29.71,10.0,SE,17.3,23.0,N/A,,Overcast,130,2013-09-24 05:35:00
12:55 AM,66.4,52.7,61,29.70,10.0,SE,15.0,21.9,N/A,,Overcast,130,2013-09-24 05:55:00
1:15 AM,66.2,52.7,62,29.70,10.0,ESE,12.7,18.4,N/A,,Overcast,120,2013-09-24 06:15:00
1:35 AM,65.8,52.9,63,29.70,10.0,ESE,11.5,-,N/A,,Overcast,120,2013-09-24 06:35:00
1:55 AM,65.7,53.1,64,29.70,10.0,ESE,11.5,17.3,N/A,,Overcast,120,2013-09-24 06:55:00
2:35 AM,64.9,53.6,67,29.70,10.0,ESE,9.2,-,N/A,,Overcast,110,2013-09-24 07:35:00
2:55 AM,64.4,53.6,68,29.70,10.0,East,8.1,-,N/A,,Mostly Cloudy,100,2013-09-24 07:55:00
3:15 AM,63.3,53.6,71,29.71,10.0,East,5.8,-,N/A,,Scattered Clouds,90,2013-09-24 08:15:00
3:35 AM,62.2,53.6,73,29.71,10.0,ENE,5.8,-,N/A,,Scattered Clouds,70,2013-09-24 08:35:00
3:55 AM,62.2,53.8,74,29.71,10.0,East,8.1,-,N/A,,Mostly Cloudy,80,2013-09-24 08:55:00
4:35 AM,63.1,54.1,72,29.73,10.0,East,6.9,-,N/A,,Scattered Clouds,80,2013-09-24 09:35:00
4:55 AM,63.0,54.5,74,29.73,10.0,East,6.9,-,N/A,,Clear,80,2013-09-24 09:55:00
5:15 AM,62.8,54.5,74,29.73,10.0,ENE,6.9,-,N/A,,Scattered Clouds,70,2013-09-24 10:15:00
5:35 AM,61.9,54.5,77,29.74,10.0,NNE,5.8,-,N/A,,Scattered Clouds,20,2013-09-24 10:35:00
5:55 AM,61.2,54.5,79,29.75,10.0,NNE,6.9,-,N/A,,Clear,30,2013-09-24 10:55:00
6:15 AM,60.4,55.0,82,29.76,10.0,NNE,6.9,-,N/A,,Clear,30,2013-09-24 11:15:00
6:35 AM,59.4,54.5,84,29.77,10.0,North,6.9,-,N/A,,Clear,10,2013-09-24 11:35:00
6:55 AM,58.5,54.0,85,29.78,10.0,North,6.9,-,N/A,,Clear,360,2013-09-24 11:55:00
7:15 AM,57.2,53.6,88,29.79,10.0,North,8.1,-,N/A,,Clear,360,2013-09-24 12:15:00
7:35 AM,57.6,53.8,87,29.80,10.0,North,8.1,-,N/A,,Clear,350,2013-09-24 12:35:00
7:55 AM,58.1,54.3,87,29.80,10.0,North,8.1,-,N/A,,Clear,360,2013-09-24 12:55:00
8:15 AM,59.5,54.7,84,29.81,10.0,North,8.1,-,N/A,,Scattered Clouds,360,2013-09-24 13:15:00
8:35 AM,61.2,55.0,80,29.82,10.0,North,9.2,-,N/A,,Mostly Cloudy,360,2013-09-24 13:35:00
8:55 AM,61.9,55.2,79,29.82,10.0,North,8.1,-,N/A,,Scattered Clouds,360,2013-09-24 13:55:00
9:15 AM,62.8,55.4,77,29.83,10.0,North,12.7,17.3,N/A,,Clear,350,2013-09-24 14:15:00
9:35 AM,63.5,55.0,74,29.84,10.0,North,12.7,18.4,N/A,,Clear,350,2013-09-24 14:35:00
9:55 AM,64.6,55.2,72,29.85,10.0,North,11.5,-,N/A,,Clear,360,2013-09-24 14:55:00
10:15 AM,65.3,54.9,69,29.86,10.0,North,12.7,-,N/A,,Clear,360,2013-09-24 15:15:00
10:35 AM,66.7,55.2,66,29.86,10.0,North,11.5,17.3,N/A,,Clear,360,2013-09-24 15:35:00
10:55 AM,67.6,54.7,63,29.86,10.0,NNW,12.7,19.6,N/A,,Scattered Clouds,340,2013-09-24 15:55:00
11:15 AM,68.2,54.5,62,29.87,10.0,North,16.1,-,N/A,,Scattered Clouds,360,2013-09-24 16:15:00
11:35 AM,68.9,54.1,59,29.88,10.0,North,16.1,20.7,N/A,,Scattered Clouds,360,2013-09-24 16:35:00
11:55 AM,69.3,54.5,59,29.88,10.0,North,15.0,21.9,N/A,,Overcast,360,2013-09-24 16:55:00
12:55 PM,68.9,55.4,62,29.88,10.0,NNW,16.1,19.6,N/A,,Overcast,340,2013-09-24 17:55:00
1:15 PM,69.6,55.0,60,29.88,10.0,North,13.8,-,N/A,,Overcast,360,2013-09-24 18:15:00
1:35 PM,68.7,55.2,62,29.89,10.0,North,15.0,-,N/A,,Overcast,350,2013-09-24 18:35:00
1:55 PM,68.7,55.4,62,29.89,10.0,North,6.9,-,N/A,,Overcast,360,2013-09-24 18:55:00
2:15 PM,68.2,55.4,64,29.89,10.0,NNW,10.4,18.4,N/A,,Overcast,340,2013-09-24 19:15:00
2:35 PM,69.4,55.4,61,29.88,10.0,North,8.1,-,N/A,,Overcast,350,2013-09-24 19:35:00
2:55 PM,70.2,55.4,59,29.88,10.0,North,11.5,-,N/A,,Overcast,360,2013-09-24 19:55:00
3:15 PM,70.3,55.4,59,29.88,10.0,North,8.1,-,N/A,,Overcast,360,2013-09-24 20:15:00
3:35 PM,70.0,55.6,60,29.89,10.0,NNW,8.1,-,N/A,,Overcast,340,2013-09-24 20:35:00
3:55 PM,69.3,55.6,62,29.89,10.0,North,8.1,-,N/A,,Overcast,360,2013-09-24 20:55:00
4:15 PM,69.1,55.9,63,29.89,10.0,North,6.9,-,N/A,,Overcast,350,2013-09-24 21:15:00
4:35 PM,69.3,56.3,63,29.90,10.0,North,8.1,-,N/A,,Overcast,360,2013-09-24 21:35:00
4:55 PM,68.9,56.3,64,29.90,10.0,NNW,6.9,-,N/A,,Overcast,340,2013-09-24 21:55:00
5:15 PM,69.6,56.5,63,29.90,10.0,NNW,4.6,-,N/A,,Mostly Cloudy,340,2013-09-24 22:15:00
5:35 PM,70.9,55.8,59,29.90,10.0,North,6.9,-,N/A,,Scattered Clouds,360,2013-09-24 22:35:00
5:55 PM,70.9,55.9,59,29.90,10.0,NNW,6.9,-,N/A,,Clear,340,2013-09-24 22:55:00
6:15 PM,71.4,55.9,58,29.90,10.0,North,5.8,-,N/A,,Mostly Cloudy,350,2013-09-24 23:15:00
6:35 PM,70.5,56.3,61,29.89,10.0,North,8.1,-,N/A,,Mostly Cloudy,350,2013-09-24 23:35:00
6:55 PM,68.9,56.5,65,29.90,10.0,North,4.6,-,N/A,,Scattered Clouds,350,2013-09-24 23:55:00
7:15 PM,65.7,56.8,73,29.90,10.0,NNW,3.5,-,N/A,,Scattered Clouds,330,2013-09-25 00:15:00
7:35 PM,63.9,56.8,78,29.90,10.0,NW,4.6,-,N/A,,Mostly Cloudy,310,2013-09-25 00:35:00
7:55 PM,64.0,57.2,78,29.90,10.0,North,4.6,-,N/A,,Overcast,350,2013-09-25 00:55:00
8:15 PM,65.5,57.2,75,29.91,10.0,NNE,3.5,-,N/A,,Overcast,20,2013-09-25 01:15:00
8:35 PM,63.5,56.8,79,29.91,10.0,NE,3.5,-,N/A,,Mostly Cloudy,50,2013-09-25 01:35:00
8:55 PM,62.1,56.3,81,29.91,10.0,NE,5.8,-,N/A,,Scattered Clouds,50,2013-09-25 01:55:00
9:15 PM,60.8,55.9,84,29.92,10.0,NE,4.6,-,N/A,,Clear,50,2013-09-25 02:15:00
9:35 PM,57.2,54.0,89,29.92,10.0,Calm,Calm,-,N/A,,Clear,0,2013-09-25 02:35:00
9:55 PM,57.6,54.7,90,29.92,10.0,Calm,Calm,-,N/A,,Clear,0,2013-09-25 02:55:00
10:15 PM,57.2,54.1,89,29.93,10.0,NNW,4.6,-,N/A,,Clear,330,2013-09-25 03:15:00
10:35 PM,57.2,54.0,89,29.92,10.0,NNW,4.6,-,N/A,,Clear,340,2013-09-25 03:35:00
10:55 PM,55.9,53.6,92,29.92,10.0,North,5.8,-,N/A,,Clear,350,2013-09-25 03:55:00
11:15 PM,55.2,52.9,92,29.92,10.0,NNW,4.6,-,N/A,,Clear,340,2013-09-25 04:15:00
11:35 PM,55.4,53.6,94,29.92,7.0,NW,5.8,-,N/A,,Clear,310,2013-09-25 04:35:00
11:55 PM,56.5,54.7,94,29.92,10.0,NW,4.6,-,N/A,,Clear,320,2013-09-25 04:55:00